Location: Huesca
(42.1318°N, 0.4078°W)
Time: 07:12:36
(UTC+02:00)

YUBILEINY - Visible Passes

Search period start: 16 April 2024 00:00
Search period end: 26 April 2024 00:00
Orbit: 1479 x 1508 km, 82.5° (Epoch: 15 April)

Date Brightness Start Highest point End Pass type
(mag) Time Alt. Az. Time Alt. Az. Time Alt. Az.
16 Apr ? 21:54:58 10° SSW 22:03:30 52° WNW 22:12:06 10° N visible
17 Apr ? 06:09:09 10° NNE 06:14:46 18° ENE 06:20:20 10° E visible
17 Apr ? 21:04:53 10° S 21:13:43 88° W 21:22:38 10° N visible
17 Apr ? 23:05:54 10° WSW 23:11:51 19° WNW 23:17:53 10° NNW visible
18 Apr ? 22:13:32 10° SW 22:21:23 35° WNW 22:29:18 10° N visible
19 Apr ? 06:25:46 10° N 06:33:00 27° ENE 06:40:08 10° ESE visible
19 Apr ? 21:22:39 10° SSW 21:31:21 61° WNW 21:40:06 10° N visible
19 Apr ? 23:27:04 10° WNW 23:30:18 12° NW 23:33:34 10° NNW visible
20 Apr ? 05:37:45 10° NNE 05:42:19 15° ENE 05:46:51 10° E visible
20 Apr ? 22:32:48 10° WSW 22:39:29 23° WNW 22:46:13 10° NNW visible
21 Apr ? 06:42:48 10° N 06:51:00 41° ENE 06:59:05 10° SE visible
21 Apr ? 21:40:58 10° SW 21:49:09 41° WNW 21:57:24 10° N visible
22 Apr ? 05:54:01 10° NNE 06:00:39 23° ENE 06:07:13 10° ESE visible
22 Apr ? 22:53:08 10° W 22:57:49 15° WNW 23:02:31 10° NNW visible
23 Apr ? 05:06:46 10° NNE 05:09:49 12° NE 05:12:52 10° ENE visible
23 Apr ? 21:59:54 10° WSW 22:07:09 28° WNW 22:14:27 10° N visible
24 Apr ? 06:10:55 10° N 06:18:45 34° ENE 06:26:29 10° SE visible
24 Apr ? 21:08:29 10° SSW 21:16:56 49° WNW 21:25:27 10° N visible
25 Apr ? 05:22:22 10° NNE 05:28:16 19° ENE 05:34:06 10° ESE visible
25 Apr ? 22:19:42 10° W 22:25:22 18° WNW 22:31:05 10° NNW visible
